Year,Month,Day,Hour,Minute,Value (Times are PST for temperature in C)
2006,06,27,00,00,18.20
2006,06,27,00,01,18.20
2006,06,27,00,02,18.10
2006,06,27,00,03,18.10
2006,06,27,00,04,18.10
2006,06,27,00,05,18.10
2006,06,27,00,06,18.00
2006,06,27,00,07,17.90
2006,06,27,00,08,17.90
2006,06,27,00,09,17.90
2006,06,27,00,10,17.90
2006,06,27,00,11,17.90
2006,06,27,00,12,17.90
2006,06,27,00,13,17.90
2006,06,27,00,14,17.90
2006,06,27,00,15,17.80
2006,06,27,00,16,17.80
2006,06,27,00,17,17.80
2006,06,27,00,18,17.80
2006,06,27,00,19,17.80
2006,06,27,00,20,17.80
2006,06,27,00,21,17.80
2006,06,27,00,22,17.70
2006,06,27,00,23,17.70
2006,06,27,00,24,17.70
2006,06,27,00,25,17.70
2006,06,27,00,26,17.60
2006,06,27,00,27,17.60
2006,06,27,00,28,17.60
2006,06,27,00,29,17.50
2006,06,27,00,30,17.50
2006,06,27,00,31,17.50
2006,06,27,00,32,17.40
2006,06,27,00,33,17.40
2006,06,27,00,34,17.40
2006,06,27,00,35,17.30
2006,06,27,00,36,17.30
2006,06,27,00,37,17.30
2006,06,27,00,38,17.30
2006,06,27,00,39,17.30
2006,06,27,00,40,17.20
2006,06,27,00,41,17.10
2006,06,27,00,42,17.10
2006,06,27,00,43,17.00
2006,06,27,00,44,17.00
2006,06,27,00,45,17.00
2006,06,27,00,46,16.90
2006,06,27,00,47,16.90
2006,06,27,00,48,16.80
2006,06,27,00,49,16.80
2006,06,27,00,50,16.70
2006,06,27,00,51,16.70
2006,06,27,00,52,16.70
2006,06,27,00,53,16.60
2006,06,27,00,54,16.60
2006,06,27,00,55,16.50
2006,06,27,00,56,16.40
2006,06,27,00,57,16.40
2006,06,27,00,58,16.40
2006,06,27,00,59,16.40
2006,06,27,01,00,16.40
2006,06,27,01,01,16.30
2006,06,27,01,02,16.30
2006,06,27,01,03,16.20
2006,06,27,01,04,16.10
2006,06,27,01,05,16.00
2006,06,27,01,06,15.90
2006,06,27,01,07,15.80
2006,06,27,01,08,15.80
2006,06,27,01,09,15.70
2006,06,27,01,10,15.70
2006,06,27,01,11,15.60
2006,06,27,01,12,15.50
2006,06,27,01,13,15.50
2006,06,27,01,14,15.50
2006,06,27,01,15,15.50
2006,06,27,01,16,15.50
2006,06,27,01,17,15.50
2006,06,27,01,18,15.50
2006,06,27,01,19,15.50
2006,06,27,01,20,15.50
2006,06,27,01,21,15.50
2006,06,27,01,22,15.60
2006,06,27,01,23,15.60
2006,06,27,01,24,15.60
2006,06,27,01,25,15.60
2006,06,27,01,26,15.60
2006,06,27,01,27,15.60
2006,06,27,01,28,15.60
2006,06,27,01,29,15.70
2006,06,27,01,30,15.70
2006,06,27,01,31,15.70
2006,06,27,01,32,15.70
2006,06,27,01,33,15.60
2006,06,27,01,34,15.60
2006,06,27,01,35,15.50
2006,06,27,01,36,15.50
2006,06,27,01,37,15.50
2006,06,27,01,38,15.40
2006,06,27,01,39,15.40
2006,06,27,01,40,15.30
2006,06,27,01,41,15.30
2006,06,27,01,42,15.20
2006,06,27,01,43,15.20
2006,06,27,01,44,15.10
2006,06,27,01,45,15.00
2006,06,27,01,46,14.90
2006,06,27,01,47,14.80
2006,06,27,01,48,14.80
2006,06,27,01,49,14.70
2006,06,27,01,50,14.60
2006,06,27,01,51,14.50
2006,06,27,01,52,14.40
2006,06,27,01,53,14.30
2006,06,27,01,54,14.20
2006,06,27,01,55,14.20
2006,06,27,01,56,14.10
2006,06,27,01,57,14.10
2006,06,27,01,58,14.10
2006,06,27,01,59,14.10
2006,06,27,02,00,14.10
2006,06,27,02,01,14.10
2006,06,27,02,02,14.00
2006,06,27,02,03,14.00
2006,06,27,02,04,14.00
2006,06,27,02,05,14.00
2006,06,27,02,06,14.00
2006,06,27,02,07,14.00
2006,06,27,02,08,14.00
2006,06,27,02,09,14.00
2006,06,27,02,10,14.00
2006,06,27,02,11,14.00
2006,06,27,02,12,14.00
2006,06,27,02,13,14.00
2006,06,27,02,14,14.00
2006,06,27,02,15,14.00
2006,06,27,02,16,14.10
2006,06,27,02,17,14.10
2006,06,27,02,18,14.10
2006,06,27,02,19,14.10
2006,06,27,02,20,14.10
2006,06,27,02,21,14.10
2006,06,27,02,22,14.00
2006,06,27,02,23,14.00
2006,06,27,02,24,14.00
2006,06,27,02,25,14.00
2006,06,27,02,26,14.00
2006,06,27,02,27,14.00
2006,06,27,02,28,14.00
2006,06,27,02,29,14.00
2006,06,27,02,30,14.00
2006,06,27,02,31,14.00
2006,06,27,02,32,14.00
2006,06,27,02,33,14.00
2006,06,27,02,34,14.00
2006,06,27,02,35,14.00
2006,06,27,02,36,13.90
2006,06,27,02,37,13.90
2006,06,27,02,38,13.90
2006,06,27,02,39,14.00
2006,06,27,02,40,14.00
2006,06,27,02,41,14.00
2006,06,27,02,42,14.00
2006,06,27,02,43,14.00
2006,06,27,02,44,14.00
2006,06,27,02,45,14.00
2006,06,27,02,46,14.00
2006,06,27,02,47,14.00
2006,06,27,02,48,14.00
2006,06,27,02,49,14.00
2006,06,27,02,50,14.10
2006,06,27,02,51,14.10
2006,06,27,02,52,14.10
2006,06,27,02,53,14.10
2006,06,27,02,54,14.20
2006,06,27,02,55,14.20
2006,06,27,02,56,14.20
2006,06,27,02,57,14.30
2006,06,27,02,58,14.30
2006,06,27,02,59,14.30
2006,06,27,03,00,14.30
2006,06,27,03,01,14.20
2006,06,27,03,02,14.20
2006,06,27,03,03,14.20
2006,06,27,03,04,14.20
2006,06,27,03,05,14.10
2006,06,27,03,06,14.00
2006,06,27,03,07,14.00
2006,06,27,03,08,13.90
2006,06,27,03,09,13.90
2006,06,27,03,10,13.90
2006,06,27,03,11,13.90
2006,06,27,03,12,13.80
2006,06,27,03,13,13.80
2006,06,27,03,14,13.80
2006,06,27,03,15,13.70
2006,06,27,03,16,13.70
2006,06,27,03,17,13.70
2006,06,27,03,18,13.70
2006,06,27,03,19,13.70
2006,06,27,03,20,13.70
2006,06,27,03,21,13.60
2006,06,27,03,22,13.60
2006,06,27,03,23,13.60
2006,06,27,03,24,13.60
2006,06,27,03,25,13.60
2006,06,27,03,26,13.50
2006,06,27,03,27,13.50
2006,06,27,03,28,13.50
2006,06,27,03,29,13.50
2006,06,27,03,30,13.50
2006,06,27,03,31,13.50
2006,06,27,03,32,13.50
2006,06,27,03,33,13.50
2006,06,27,03,34,13.50
2006,06,27,03,35,13.50
2006,06,27,03,36,13.50
2006,06,27,03,37,13.50
2006,06,27,03,38,13.40
2006,06,27,03,39,13.40
2006,06,27,03,40,13.40
2006,06,27,03,41,13.40
2006,06,27,03,42,13.40
2006,06,27,03,43,13.40
2006,06,27,03,44,13.40
2006,06,27,03,45,13.40
2006,06,27,03,46,13.30
2006,06,27,03,47,13.30
2006,06,27,03,48,13.30
2006,06,27,03,49,13.30
2006,06,27,03,50,13.30
2006,06,27,03,51,13.30
2006,06,27,03,52,13.40
2006,06,27,03,53,13.40
2006,06,27,03,54,13.40
2006,06,27,03,55,13.40
2006,06,27,03,56,13.40
2006,06,27,03,57,13.40
2006,06,27,03,58,13.40
2006,06,27,03,59,13.40
2006,06,27,04,00,13.40
2006,06,27,04,01,13.40
2006,06,27,04,02,13.40
2006,06,27,04,03,13.40
2006,06,27,04,04,13.40
2006,06,27,04,05,13.40
2006,06,27,04,06,13.40
2006,06,27,04,07,13.40
2006,06,27,04,08,13.40
2006,06,27,04,09,13.40
2006,06,27,04,10,13.40
2006,06,27,04,11,13.40
2006,06,27,04,12,13.40
2006,06,27,04,13,13.40
2006,06,27,04,14,13.40
2006,06,27,04,15,13.40
2006,06,27,04,16,13.50
2006,06,27,04,17,13.50
2006,06,27,04,18,13.50
2006,06,27,04,19,13.50
2006,06,27,04,20,13.50
2006,06,27,04,21,13.50
2006,06,27,04,22,13.60
2006,06,27,04,23,13.60
2006,06,27,04,24,13.60
2006,06,27,04,25,13.60
2006,06,27,04,26,13.60
2006,06,27,04,27,13.60
2006,06,27,04,28,13.60
2006,06,27,04,29,13.60
2006,06,27,04,30,13.60
2006,06,27,04,31,13.60
2006,06,27,04,32,13.70
2006,06,27,04,33,13.70
2006,06,27,04,34,13.70
2006,06,27,04,35,13.70
2006,06,27,04,36,13.70
2006,06,27,04,37,13.70
2006,06,27,04,38,13.70
2006,06,27,04,39,13.70
2006,06,27,04,40,13.70
2006,06,27,04,41,13.70
2006,06,27,04,42,13.70
2006,06,27,04,43,13.70
2006,06,27,04,44,13.70
2006,06,27,04,45,13.70
2006,06,27,04,46,13.70
2006,06,27,04,47,13.70
2006,06,27,04,48,13.70
2006,06,27,04,49,13.60
2006,06,27,04,50,13.60
2006,06,27,04,51,13.60
2006,06,27,04,52,13.60
2006,06,27,04,53,13.60
2006,06,27,04,54,13.60
2006,06,27,04,55,13.60
2006,06,27,04,56,13.60
2006,06,27,04,57,13.50
2006,06,27,04,58,13.50
2006,06,27,04,59,13.50
2006,06,27,05,00,13.50
2006,06,27,05,01,13.50
2006,06,27,05,02,13.40
2006,06,27,05,03,13.40
2006,06,27,05,04,13.40
2006,06,27,05,05,13.30
2006,06,27,05,06,13.30
2006,06,27,05,07,13.30
2006,06,27,05,08,13.30
2006,06,27,05,09,13.30
2006,06,27,05,10,13.30
2006,06,27,05,11,13.30
2006,06,27,05,12,13.30
2006,06,27,05,13,13.20
2006,06,27,05,14,13.20
2006,06,27,05,15,13.20
2006,06,27,05,16,13.20
2006,06,27,05,17,13.20
2006,06,27,05,18,13.20
2006,06,27,05,19,13.20
2006,06,27,05,20,13.20
2006,06,27,05,21,13.20
2006,06,27,05,22,13.20
2006,06,27,05,23,13.20
2006,06,27,05,24,13.20
2006,06,27,05,25,13.20
2006,06,27,05,26,13.20
2006,06,27,05,27,13.20
2006,06,27,05,28,13.30
2006,06,27,05,29,13.30
2006,06,27,05,30,13.30
2006,06,27,05,31,13.30
2006,06,27,05,32,13.30
2006,06,27,05,33,13.40
2006,06,27,05,34,13.40
2006,06,27,05,35,13.40
2006,06,27,05,36,13.40
2006,06,27,05,37,13.40
2006,06,27,05,38,13.40
2006,06,27,05,39,13.40
2006,06,27,05,40,13.50
2006,06,27,05,41,13.50
2006,06,27,05,42,13.50
2006,06,27,05,43,13.50
2006,06,27,05,44,13.50
2006,06,27,05,45,13.50
2006,06,27,05,46,13.50
2006,06,27,05,47,13.50
2006,06,27,05,48,13.60
2006,06,27,05,49,13.60
2006,06,27,05,50,13.60
2006,06,27,05,51,13.70
2006,06,27,05,52,13.70
2006,06,27,05,53,13.70
2006,06,27,05,54,13.70
2006,06,27,05,55,13.70
2006,06,27,05,56,13.80
2006,06,27,05,57,13.80
2006,06,27,05,58,13.80
2006,06,27,05,59,13.80
2006,06,27,06,00,13.80
2006,06,27,06,01,13.90
2006,06,27,06,02,13.90
2006,06,27,06,03,13.90
2006,06,27,06,04,14.00
2006,06,27,06,05,14.00
2006,06,27,06,06,14.00
2006,06,27,06,07,14.10
2006,06,27,06,08,14.20
2006,06,27,06,09,14.20
2006,06,27,06,10,14.20
2006,06,27,06,11,14.30
2006,06,27,06,12,14.30
2006,06,27,06,13,14.30
2006,06,27,06,14,14.40
2006,06,27,06,15,14.40
2006,06,27,06,16,14.40
2006,06,27,06,17,14.40
2006,06,27,06,18,14.40
2006,06,27,06,19,14.40
2006,06,27,06,20,14.40
2006,06,27,06,21,14.40
2006,06,27,06,22,14.40
2006,06,27,06,23,14.40
2006,06,27,06,24,14.40
2006,06,27,06,25,14.40
2006,06,27,06,26,14.50
2006,06,27,06,27,14.50
2006,06,27,06,28,14.50
2006,06,27,06,29,14.50
2006,06,27,06,30,14.50
2006,06,27,06,31,14.50
2006,06,27,06,32,14.50
2006,06,27,06,33,14.50
2006,06,27,06,34,14.60
2006,06,27,06,35,14.60
2006,06,27,06,36,14.60
2006,06,27,06,37,14.60
2006,06,27,06,38,14.60
2006,06,27,06,39,14.60
2006,06,27,06,40,14.70
2006,06,27,06,41,14.70
2006,06,27,06,42,14.70
2006,06,27,06,43,14.80
2006,06,27,06,44,14.80
2006,06,27,06,45,14.80
2006,06,27,06,46,14.80
2006,06,27,06,47,14.80
2006,06,27,06,48,14.80
2006,06,27,06,49,14.90
2006,06,27,06,50,14.90
2006,06,27,06,51,15.00
2006,06,27,06,52,15.10
2006,06,27,06,53,15.30
2006,06,27,06,54,15.40
2006,06,27,06,55,15.50
2006,06,27,06,56,15.50
2006,06,27,06,57,15.60
2006,06,27,06,58,15.70
2006,06,27,06,59,15.80
2006,06,27,07,00,15.90
2006,06,27,07,01,15.90
2006,06,27,07,02,16.10
2006,06,27,07,03,16.10
2006,06,27,07,04,16.20
2006,06,27,07,05,16.30
2006,06,27,07,06,16.30
2006,06,27,07,07,16.40
2006,06,27,07,08,16.60
2006,06,27,07,09,16.70
2006,06,27,07,10,16.70
2006,06,27,07,11,16.80
2006,06,27,07,12,16.90
2006,06,27,07,13,16.90
2006,06,27,07,14,16.90
2006,06,27,07,15,16.90
2006,06,27,07,16,16.80
2006,06,27,07,17,16.80
2006,06,27,07,18,16.90
2006,06,27,07,19,16.90
2006,06,27,07,20,16.90
2006,06,27,07,21,17.00
2006,06,27,07,22,17.00
2006,06,27,07,23,17.10
2006,06,27,07,24,17.20
2006,06,27,07,25,17.30
2006,06,27,07,26,17.40
2006,06,27,07,27,17.40
2006,06,27,07,28,17.50
2006,06,27,07,29,17.50
2006,06,27,07,30,17.60
2006,06,27,07,31,17.60
2006,06,27,07,32,17.70
2006,06,27,07,33,17.80
2006,06,27,07,34,17.80
2006,06,27,07,35,17.80
2006,06,27,07,36,17.90
2006,06,27,07,37,18.10
2006,06,27,07,38,18.20
2006,06,27,07,39,18.30
2006,06,27,07,40,18.40
2006,06,27,07,41,18.50
2006,06,27,07,42,18.50
2006,06,27,07,43,18.50
2006,06,27,07,44,18.30
2006,06,27,07,45,17.90
2006,06,27,07,46,17.60
2006,06,27,07,47,17.20
2006,06,27,07,48,16.90
2006,06,27,07,49,16.70
2006,06,27,07,50,16.60
2006,06,27,07,51,16.40
2006,06,27,07,52,16.40
2006,06,27,07,53,16.40
2006,06,27,07,54,16.60
2006,06,27,07,55,16.70
2006,06,27,07,56,16.80
2006,06,27,07,57,16.90
2006,06,27,07,58,17.00
2006,06,27,07,59,17.10
2006,06,27,08,00,17.20
2006,06,27,08,01,17.20
2006,06,27,08,02,17.20
2006,06,27,08,03,17.20
2006,06,27,08,04,17.30
2006,06,27,08,05,17.30
2006,06,27,08,06,17.30
2006,06,27,08,07,17.40
2006,06,27,08,08,17.50
2006,06,27,08,09,17.60
2006,06,27,08,10,17.80
2006,06,27,08,11,18.00
2006,06,27,08,12,18.20
2006,06,27,08,13,18.30
2006,06,27,08,14,18.40
2006,06,27,08,15,18.50
2006,06,27,08,16,18.60
2006,06,27,08,17,18.70
2006,06,27,08,18,18.80
2006,06,27,08,19,18.80
2006,06,27,08,20,18.80
2006,06,27,08,21,18.90
2006,06,27,08,22,19.00
2006,06,27,08,23,19.10
2006,06,27,08,24,19.20
2006,06,27,08,25,19.30
2006,06,27,08,26,19.40
2006,06,27,08,27,19.50
2006,06,27,08,28,19.60
2006,06,27,08,29,19.70
2006,06,27,08,30,19.70
2006,06,27,08,31,19.80
2006,06,27,08,32,19.80
2006,06,27,08,33,19.80
2006,06,27,08,34,19.80
2006,06,27,08,35,19.80
2006,06,27,08,36,19.80
2006,06,27,08,37,19.80
2006,06,27,08,38,19.90
2006,06,27,08,39,19.90
2006,06,27,08,40,19.90
2006,06,27,08,41,19.90
2006,06,27,08,42,19.90
2006,06,27,08,43,19.90
2006,06,27,08,44,19.90
2006,06,27,08,45,19.60
2006,06,27,08,46,19.40
2006,06,27,08,47,19.20
2006,06,27,08,48,19.00
2006,06,27,08,49,18.90
2006,06,27,08,50,18.90
2006,06,27,08,51,18.80
2006,06,27,08,52,18.80
2006,06,27,08,53,18.90
2006,06,27,08,54,18.90
2006,06,27,08,55,18.90
2006,06,27,08,56,18.90
2006,06,27,08,57,18.90
2006,06,27,08,58,19.00
2006,06,27,08,59,19.10
2006,06,27,09,00,19.10
2006,06,27,09,01,19.10
2006,06,27,09,02,19.30
2006,06,27,09,03,19.40
2006,06,27,09,04,19.60
2006,06,27,09,05,19.70
2006,06,27,09,06,19.80
2006,06,27,09,07,19.80
2006,06,27,09,08,19.90
2006,06,27,09,09,19.90
2006,06,27,09,10,20.00
2006,06,27,09,11,20.20
2006,06,27,09,12,20.30
2006,06,27,09,13,20.50
2006,06,27,09,14,20.60
2006,06,27,09,15,20.70
2006,06,27,09,16,20.80
2006,06,27,09,17,20.90
2006,06,27,09,18,21.00
2006,06,27,09,19,21.00
2006,06,27,09,20,21.10
2006,06,27,09,21,21.20
2006,06,27,09,22,21.30
2006,06,27,09,23,21.30
2006,06,27,09,24,21.30
2006,06,27,09,25,21.30
2006,06,27,09,26,21.20
2006,06,27,09,27,21.10
2006,06,27,09,28,21.00
2006,06,27,09,29,21.00
2006,06,27,09,30,21.00
2006,06,27,09,31,21.00
2006,06,27,09,32,20.90
2006,06,27,09,33,20.90
2006,06,27,09,34,20.90
2006,06,27,09,35,20.90
2006,06,27,09,36,20.80
2006,06,27,09,37,20.80
2006,06,27,09,38,20.80
2006,06,27,09,39,20.80
2006,06,27,09,40,20.80
2006,06,27,09,41,20.80
2006,06,27,09,42,20.90
2006,06,27,09,43,21.00
2006,06,27,09,44,21.00
2006,06,27,09,45,21.00
2006,06,27,09,46,21.00
2006,06,27,09,47,21.00
2006,06,27,09,48,21.00
2006,06,27,09,49,21.10
2006,06,27,09,50,21.30
2006,06,27,09,51,21.30
2006,06,27,09,52,21.40
2006,06,27,09,53,21.40
2006,06,27,09,54,21.50
2006,06,27,09,55,21.60
2006,06,27,09,56,21.60
2006,06,27,09,57,21.60
2006,06,27,09,58,21.40
2006,06,27,09,59,21.40
2006,06,27,10,00,21.40
2006,06,27,10,01,21.40
2006,06,27,10,02,21.30
2006,06,27,10,03,21.30
2006,06,27,10,04,21.40
2006,06,27,10,05,21.40
2006,06,27,10,06,21.30
2006,06,27,10,07,21.30
2006,06,27,10,08,21.10
2006,06,27,10,09,21.00
2006,06,27,10,10,20.90
2006,06,27,10,11,20.80
2006,06,27,10,12,20.80
2006,06,27,10,13,20.80
2006,06,27,10,14,20.80
2006,06,27,10,15,20.70
2006,06,27,10,16,20.70
2006,06,27,10,17,20.70
2006,06,27,10,18,20.70
2006,06,27,10,19,20.70
2006,06,27,10,20,20.60
2006,06,27,10,21,20.50
2006,06,27,10,22,20.50
2006,06,27,10,23,20.50
2006,06,27,10,24,20.50
2006,06,27,10,25,20.60
2006,06,27,10,26,20.60
2006,06,27,10,27,20.70
2006,06,27,10,28,20.80
2006,06,27,10,29,20.80
2006,06,27,10,30,20.90
2006,06,27,10,31,21.00
2006,06,27,10,32,21.10
2006,06,27,10,33,21.20
2006,06,27,10,34,21.30
2006,06,27,10,35,21.50
2006,06,27,10,36,21.60
2006,06,27,10,37,21.70
2006,06,27,10,38,21.90
2006,06,27,10,39,22.00
2006,06,27,10,40,22.10
2006,06,27,10,41,22.20
2006,06,27,10,42,22.30
2006,06,27,10,43,22.30
2006,06,27,10,44,22.10
2006,06,27,10,45,22.00
2006,06,27,10,46,21.90
2006,06,27,10,47,21.80
2006,06,27,10,48,21.90
2006,06,27,10,49,21.90
2006,06,27,10,50,22.00
2006,06,27,10,51,22.10
2006,06,27,10,52,22.20
2006,06,27,10,53,22.30
2006,06,27,10,54,22.50
2006,06,27,10,55,22.60
2006,06,27,10,56,22.60
2006,06,27,10,57,22.60
2006,06,27,10,58,22.60
2006,06,27,10,59,22.70
2006,06,27,11,00,22.80
2006,06,27,11,01,22.70
2006,06,27,11,02,22.60
2006,06,27,11,03,22.50
2006,06,27,11,04,22.30
2006,06,27,11,05,22.10
2006,06,27,11,06,22.00
2006,06,27,11,07,21.90
2006,06,27,11,08,21.90
2006,06,27,11,09,22.00
2006,06,27,11,10,22.10
2006,06,27,11,11,22.20
2006,06,27,11,12,22.30
2006,06,27,11,13,22.30
2006,06,27,11,14,22.30
2006,06,27,11,15,22.20
2006,06,27,11,16,22.10
2006,06,27,11,17,22.10
2006,06,27,11,18,22.10
2006,06,27,11,19,22.00
2006,06,27,11,20,21.90
2006,06,27,11,21,21.90
2006,06,27,11,22,21.90
2006,06,27,11,23,21.90
2006,06,27,11,24,21.90
2006,06,27,11,25,21.90
2006,06,27,11,26,21.90
2006,06,27,11,27,21.90
2006,06,27,11,28,21.90
2006,06,27,11,29,22.00
2006,06,27,11,30,22.00
2006,06,27,11,31,22.00
2006,06,27,11,32,22.00
2006,06,27,11,33,22.20
2006,06,27,11,34,22.20
2006,06,27,11,35,22.20
2006,06,27,11,36,22.10
2006,06,27,11,37,22.00
2006,06,27,11,38,21.90
2006,06,27,11,39,21.90
2006,06,27,11,40,22.00
2006,06,27,11,41,22.10
2006,06,27,11,42,22.20
2006,06,27,11,43,22.20
2006,06,27,11,44,22.40
2006,06,27,11,45,22.50
2006,06,27,11,46,22.60
2006,06,27,11,47,22.70
2006,06,27,11,48,22.80
2006,06,27,11,49,22.70
2006,06,27,11,50,22.80
2006,06,27,11,51,22.80
2006,06,27,11,52,22.90
2006,06,27,11,53,22.90
2006,06,27,11,54,22.90
2006,06,27,11,55,22.90
2006,06,27,11,56,22.90
2006,06,27,11,57,22.90
2006,06,27,11,58,22.80
2006,06,27,11,59,22.80
2006,06,27,12,00,22.90
2006,06,27,12,01,22.90
2006,06,27,12,02,22.90
2006,06,27,12,03,22.90
2006,06,27,12,04,23.00
2006,06,27,12,05,23.10
2006,06,27,12,06,23.10
2006,06,27,12,07,23.00
2006,06,27,12,08,22.90
2006,06,27,12,09,22.80
2006,06,27,12,10,22.90
2006,06,27,12,11,22.90
2006,06,27,12,12,22.90
2006,06,27,12,13,22.90
2006,06,27,12,14,22.90
2006,06,27,12,15,22.80
2006,06,27,12,16,22.80
2006,06,27,12,17,22.80
2006,06,27,12,18,22.70
2006,06,27,12,19,22.70
2006,06,27,12,20,22.60
2006,06,27,12,21,22.60
2006,06,27,12,22,22.70
2006,06,27,12,23,22.70
2006,06,27,12,24,22.70
2006,06,27,12,25,22.60
2006,06,27,12,26,22.50
2006,06,27,12,27,22.50
2006,06,27,12,28,22.50
2006,06,27,12,29,22.50
2006,06,27,12,30,22.50
2006,06,27,12,31,22.60
2006,06,27,12,32,22.60
2006,06,27,12,33,22.60
2006,06,27,12,34,22.60
2006,06,27,12,35,22.60
2006,06,27,12,36,22.50
2006,06,27,12,37,22.60
2006,06,27,12,38,22.70
2006,06,27,12,39,22.90
2006,06,27,12,40,23.10
2006,06,27,12,41,23.30
2006,06,27,12,42,23.40
2006,06,27,12,43,23.40
2006,06,27,12,44,23.40
2006,06,27,12,45,23.50
2006,06,27,12,46,23.60
2006,06,27,12,47,23.70
2006,06,27,12,48,23.50
2006,06,27,12,49,23.40
2006,06,27,12,50,23.30
2006,06,27,12,51,23.00
2006,06,27,12,52,22.90
2006,06,27,12,53,22.90
2006,06,27,12,54,22.80
2006,06,27,12,55,22.60
2006,06,27,12,56,22.60
2006,06,27,12,57,22.70
2006,06,27,12,58,22.70
2006,06,27,12,59,22.80
2006,06,27,13,00,22.90
2006,06,27,13,01,22.90
2006,06,27,13,02,23.10
2006,06,27,13,03,23.20
2006,06,27,13,04,23.30
2006,06,27,13,05,23.40
2006,06,27,13,06,23.30
2006,06,27,13,07,23.30
2006,06,27,13,08,23.30
2006,06,27,13,09,23.50
2006,06,27,13,10,23.70
2006,06,27,13,11,23.80
2006,06,27,13,12,23.90
2006,06,27,13,13,24.00
2006,06,27,13,14,23.80
2006,06,27,13,15,23.70
2006,06,27,13,16,23.60
2006,06,27,13,17,23.60
2006,06,27,13,18,23.70
2006,06,27,13,19,23.70
2006,06,27,13,20,23.70
2006,06,27,13,21,23.90
2006,06,27,13,22,23.90
2006,06,27,13,23,23.90
2006,06,27,13,24,24.00
2006,06,27,13,25,24.10
2006,06,27,13,26,24.10
2006,06,27,13,27,24.10
2006,06,27,13,28,24.20
2006,06,27,13,29,24.30
2006,06,27,13,30,24.50
2006,06,27,13,31,24.50
2006,06,27,13,32,24.60
2006,06,27,13,33,24.70
2006,06,27,13,34,24.70
2006,06,27,13,35,24.80
2006,06,27,13,36,24.80
2006,06,27,13,37,24.80
2006,06,27,13,38,24.90
2006,06,27,13,39,24.90
2006,06,27,13,40,24.90
2006,06,27,13,41,25.00
2006,06,27,13,42,24.90
2006,06,27,13,43,24.80
2006,06,27,13,44,24.80
2006,06,27,13,45,24.90
2006,06,27,13,46,25.00
2006,06,27,13,47,25.10
2006,06,27,13,48,25.00
2006,06,27,13,49,25.00
2006,06,27,13,50,25.00
2006,06,27,13,51,24.90
2006,06,27,13,52,24.90
2006,06,27,13,53,25.00
2006,06,27,13,54,25.00
2006,06,27,13,55,24.90
2006,06,27,13,56,25.00
2006,06,27,13,57,25.00
2006,06,27,13,58,25.10
2006,06,27,13,59,25.20
2006,06,27,14,00,25.20
2006,06,27,14,01,25.20
2006,06,27,14,02,25.10
2006,06,27,14,03,25.00
2006,06,27,14,04,25.00
2006,06,27,14,05,25.00
2006,06,27,14,06,25.00
2006,06,27,14,07,24.90
2006,06,27,14,08,24.80
2006,06,27,14,09,24.80
2006,06,27,14,10,24.70
2006,06,27,14,11,24.80
2006,06,27,14,12,24.80
2006,06,27,14,13,24.80
2006,06,27,14,14,24.90
2006,06,27,14,15,24.80
2006,06,27,14,16,24.80
2006,06,27,14,17,24.80
2006,06,27,14,18,24.70
2006,06,27,14,19,24.80
2006,06,27,14,20,24.80
2006,06,27,14,21,24.80
2006,06,27,14,22,24.80
2006,06,27,14,23,24.90
2006,06,27,14,24,25.00
2006,06,27,14,25,25.00
2006,06,27,14,26,25.00
2006,06,27,14,27,25.00
2006,06,27,14,28,24.90
2006,06,27,14,29,24.90
2006,06,27,14,30,24.80
2006,06,27,14,31,24.80
2006,06,27,14,32,24.80
2006,06,27,14,33,24.80
2006,06,27,14,34,24.70
2006,06,27,14,35,24.70
2006,06,27,14,36,24.70
2006,06,27,14,37,24.60
2006,06,27,14,38,24.60
2006,06,27,14,39,24.60
2006,06,27,14,40,24.50
2006,06,27,14,41,24.50
2006,06,27,14,42,24.40
2006,06,27,14,43,24.30
2006,06,27,14,44,24.20
2006,06,27,14,45,24.20
2006,06,27,14,46,24.10
2006,06,27,14,47,24.10
2006,06,27,14,48,24.10
2006,06,27,14,49,24.10
2006,06,27,14,50,24.10
2006,06,27,14,51,24.00
2006,06,27,14,52,23.90
2006,06,27,14,53,23.90
2006,06,27,14,54,23.90
2006,06,27,14,55,24.00
2006,06,27,14,56,24.10
2006,06,27,14,57,24.20
2006,06,27,14,58,24.30
2006,06,27,14,59,24.40
2006,06,27,15,00,24.40
2006,06,27,15,01,24.40
2006,06,27,15,02,24.40
2006,06,27,15,03,24.50
2006,06,27,15,04,24.60
2006,06,27,15,05,24.60
2006,06,27,15,06,24.60
2006,06,27,15,07,24.70
2006,06,27,15,08,24.70
2006,06,27,15,09,24.80
2006,06,27,15,10,24.90
2006,06,27,15,11,25.00
2006,06,27,15,12,25.00
2006,06,27,15,13,25.00
2006,06,27,15,14,24.90
2006,06,27,15,15,24.90
2006,06,27,15,16,24.90
2006,06,27,15,17,24.90
2006,06,27,15,18,24.80
2006,06,27,15,19,24.80
2006,06,27,15,20,24.80
2006,06,27,15,21,24.80
2006,06,27,15,22,24.80
2006,06,27,15,23,24.60
2006,06,27,15,24,24.50
2006,06,27,15,25,24.50
2006,06,27,15,26,24.50
2006,06,27,15,27,24.40
2006,06,27,15,28,24.40
2006,06,27,15,29,24.40
2006,06,27,15,30,24.40
2006,06,27,15,31,24.40
2006,06,27,15,32,24.40
2006,06,27,15,33,24.40
2006,06,27,15,34,24.30
2006,06,27,15,35,24.40
2006,06,27,15,36,24.40
2006,06,27,15,37,24.40
2006,06,27,15,38,24.40
2006,06,27,15,39,24.40
2006,06,27,15,40,24.50
2006,06,27,15,41,24.50
2006,06,27,15,42,24.40
2006,06,27,15,43,24.30
2006,06,27,15,44,24.20
2006,06,27,15,45,24.10
2006,06,27,15,46,24.10
2006,06,27,15,47,24.10
2006,06,27,15,48,24.00
2006,06,27,15,49,23.90
2006,06,27,15,50,23.80
2006,06,27,15,51,23.70
2006,06,27,15,52,23.70
2006,06,27,15,53,23.80
2006,06,27,15,54,23.80
2006,06,27,15,55,23.70
2006,06,27,15,56,23.60
2006,06,27,15,57,23.60
2006,06,27,15,58,23.50
2006,06,27,15,59,23.40
2006,06,27,16,00,23.40
2006,06,27,16,01,23.40
2006,06,27,16,02,23.50
2006,06,27,16,03,23.60
2006,06,27,16,04,23.70
2006,06,27,16,05,23.90
2006,06,27,16,06,24.00
2006,06,27,16,07,24.10
2006,06,27,16,08,24.30
2006,06,27,16,09,24.40
2006,06,27,16,10,24.60
2006,06,27,16,11,24.80
2006,06,27,16,12,24.90
2006,06,27,16,13,25.00
2006,06,27,16,14,25.10
2006,06,27,16,15,25.10
2006,06,27,16,16,25.10
2006,06,27,16,17,25.10
2006,06,27,16,18,25.10
2006,06,27,16,19,25.10
2006,06,27,16,20,25.20
2006,06,27,16,21,25.20
2006,06,27,16,22,25.20
2006,06,27,16,23,25.10
2006,06,27,16,24,24.90
2006,06,27,16,25,24.50
2006,06,27,16,26,24.10
2006,06,27,16,27,23.80
2006,06,27,16,28,23.70
2006,06,27,16,29,23.70
2006,06,27,16,30,23.70
2006,06,27,16,31,23.60
2006,06,27,16,32,23.70
2006,06,27,16,33,23.70
2006,06,27,16,34,23.80
2006,06,27,16,35,23.80
2006,06,27,16,36,23.80
2006,06,27,16,37,23.80
2006,06,27,16,38,23.80
2006,06,27,16,39,23.80
2006,06,27,16,40,23.90
2006,06,27,16,41,24.10
2006,06,27,16,42,24.50
2006,06,27,16,43,25.00
2006,06,27,16,44,25.40
2006,06,27,16,45,25.70
2006,06,27,16,46,25.90
2006,06,27,16,47,26.00
2006,06,27,16,48,26.10
2006,06,27,16,49,26.20
2006,06,27,16,50,26.20
2006,06,27,16,51,26.30
2006,06,27,16,52,26.30
2006,06,27,16,53,26.30
2006,06,27,16,54,26.20
2006,06,27,16,55,26.10
2006,06,27,16,56,26.10
2006,06,27,16,57,26.00
2006,06,27,16,58,25.90
2006,06,27,16,59,25.80
2006,06,27,17,00,25.60
2006,06,27,17,01,25.40
2006,06,27,17,02,25.40
2006,06,27,17,03,25.40
2006,06,27,17,04,25.40
2006,06,27,17,05,25.30
2006,06,27,17,06,25.20
2006,06,27,17,07,25.10
2006,06,27,17,08,25.10
2006,06,27,17,09,25.00
2006,06,27,17,10,24.90
2006,06,27,17,11,24.90
2006,06,27,17,12,24.90
2006,06,27,17,13,24.80
2006,06,27,17,14,24.80
2006,06,27,17,15,24.60
2006,06,27,17,16,24.60
2006,06,27,17,17,24.50
2006,06,27,17,18,24.50
2006,06,27,17,19,24.40